Location: Isle of Man Observatory
(54.1776°N, 4.6264°W)
Time: 15:30:04
(UTC+02:00)

ARIANE 6 FM1 Upper Stage - Pass Details

Date: 21 April 2026
Orbit: 526 x 601 km, 62.0° (Epoch: 19 May)

Event Time Altitude Azimuth Distance (km) Brightness Sun altitude
Rises 01:10:41 0° 306° (NW) 2,686 7.0 -22.5°
Reaches altitude 10° 01:12:56 10° 311° (NW) 1,787 6.0 -22.6°
Maximum altitude 01:16:53 55° 30° (NNE) 639 3.1 -22.8°
Enters shadow 01:17:28 50° 66° (ENE) 684 3.0 -22.8°
